TimeCDT,TemperatureF,Dew PointF,Humidity,Sea Level PressureIn,VisibilityMPH,Wind Direction,Wind SpeedMPH,Gust SpeedMPH,PrecipitationIn,Events,Conditions,WindDirDegrees,DateUTC
12:15 AM,71.6,64.4,78,29.65,10.0,South,16.1,24.2,N/A,,Mostly Cloudy,170,2013-04-09 05:15:00
12:35 AM,71.6,64.4,78,29.65,10.0,South,20.7,26.5,N/A,,Mostly Cloudy,170,2013-04-09 05:35:00
12:55 AM,71.6,64.4,78,29.65,10.0,South,21.9,27.6,N/A,,Mostly Cloudy,180,2013-04-09 05:55:00
1:15 AM,71.6,64.4,78,29.64,10.0,South,16.1,27.6,N/A,,Mostly Cloudy,170,2013-04-09 06:15:00
1:35 AM,71.6,64.4,78,29.64,10.0,South,13.8,24.2,N/A,,Scattered Clouds,180,2013-04-09 06:35:00
1:55 AM,71.6,64.4,78,29.65,10.0,South,17.3,25.3,N/A,,Scattered Clouds,170,2013-04-09 06:55:00
2:15 AM,71.6,64.4,78,29.64,10.0,South,16.1,24.2,N/A,,Scattered Clouds,170,2013-04-09 07:15:00
2:35 AM,69.8,64.4,83,29.64,10.0,South,17.3,25.3,N/A,,Scattered Clouds,170,2013-04-09 07:35:00
2:55 AM,69.8,64.4,83,29.64,10.0,South,13.8,19.6,N/A,,Scattered Clouds,170,2013-04-09 07:55:00
3:15 AM,69.8,62.6,78,29.63,10.0,SSE,12.7,19.6,N/A,,Scattered Clouds,160,2013-04-09 08:15:00
3:35 AM,69.8,62.6,78,29.62,10.0,South,13.8,20.7,N/A,,Mostly Cloudy,170,2013-04-09 08:35:00
3:55 AM,69.8,62.6,78,29.62,10.0,South,17.3,23.0,N/A,,Mostly Cloudy,170,2013-04-09 08:55:00
4:15 AM,69.8,62.6,78,29.62,10.0,South,13.8,20.7,N/A,,Overcast,170,2013-04-09 09:15:00
4:35 AM,69.8,62.6,78,29.63,10.0,South,16.1,26.5,N/A,,Overcast,170,2013-04-09 09:35:00
4:55 AM,69.8,62.6,78,29.63,10.0,SSE,11.5,23.0,N/A,,Overcast,160,2013-04-09 09:55:00
5:15 AM,69.8,62.6,78,29.64,10.0,South,13.8,21.9,N/A,,Overcast,170,2013-04-09 10:15:00
5:35 AM,69.8,62.6,78,29.64,10.0,South,12.7,20.7,N/A,,Overcast,170,2013-04-09 10:35:00
5:55 AM,69.8,64.4,83,29.64,10.0,South,17.3,20.7,N/A,,Overcast,170,2013-04-09 10:55:00
6:15 AM,69.8,64.4,83,29.64,10.0,SSE,17.3,23.0,N/A,,Overcast,160,2013-04-09 11:15:00
6:35 AM,69.8,64.4,83,29.64,10.0,SSE,13.8,24.2,N/A,,Overcast,160,2013-04-09 11:35:00
6:55 AM,68.0,64.4,88,29.65,10.0,South,16.1,21.9,N/A,,Overcast,170,2013-04-09 11:55:00
7:15 AM,69.8,64.4,83,29.67,10.0,South,15.0,20.7,N/A,,Overcast,170,2013-04-09 12:15:00
7:35 AM,69.8,64.4,83,29.67,7.0,South,15.0,21.9,N/A,,Overcast,170,2013-04-09 12:35:00
7:55 AM,68.0,64.4,88,29.67,7.0,South,13.8,18.4,N/A,,Overcast,170,2013-04-09 12:55:00
8:15 AM,69.8,64.4,83,29.67,7.0,South,12.7,21.9,N/A,,Overcast,170,2013-04-09 13:15:00
8:35 AM,69.8,66.2,88,29.67,7.0,South,17.3,24.2,N/A,,Overcast,170,2013-04-09 13:35:00
8:55 AM,71.6,66.2,83,29.68,10.0,South,16.1,21.9,N/A,,Overcast,170,2013-04-09 13:55:00
9:15 AM,71.6,66.2,83,29.67,7.0,South,16.1,23.0,N/A,,Overcast,170,2013-04-09 14:15:00
9:35 AM,71.6,66.2,83,29.67,7.0,South,16.1,24.2,N/A,,Overcast,170,2013-04-09 14:35:00
9:55 AM,71.6,66.2,83,29.67,10.0,SSE,17.3,21.9,N/A,,Overcast,160,2013-04-09 14:55:00
10:15 AM,71.6,66.2,83,29.68,7.0,SSE,16.1,24.2,N/A,,Overcast,160,2013-04-09 15:15:00
10:55 AM,73.4,68.0,83,29.68,10.0,South,13.8,19.6,N/A,,Overcast,170,2013-04-09 15:55:00
11:15 AM,73.4,68.0,83,29.68,10.0,South,15.0,23.0,N/A,,Overcast,170,2013-04-09 16:15:00
11:35 AM,75.2,68.0,78,29.68,10.0,South,13.8,21.9,N/A,,Overcast,180,2013-04-09 16:35:00
11:55 AM,75.2,68.0,78,29.70,10.0,South,15.0,23.0,N/A,,Overcast,180,2013-04-09 16:55:00
12:15 PM,73.4,68.0,83,29.71,10.0,SSW,17.3,-,N/A,,Overcast,200,2013-04-09 17:15:00
12:35 PM,73.4,68.0,83,29.70,10.0,South,13.8,18.4,N/A,,Overcast,190,2013-04-09 17:35:00
12:55 PM,75.2,66.2,73,29.69,10.0,South,13.8,-,N/A,,Overcast,190,2013-04-09 17:55:00
1:15 PM,75.2,68.0,78,29.68,10.0,South,9.2,18.4,N/A,,Overcast,190,2013-04-09 18:15:00
1:35 PM,78.8,68.0,69,29.68,10.0,South,20.7,28.8,N/A,,Overcast,190,2013-04-09 18:35:00
1:55 PM,77.0,66.2,69,29.68,10.0,South,13.8,21.9,N/A,,Overcast,180,2013-04-09 18:55:00
2:15 PM,77.0,66.2,69,29.67,10.0,South,13.8,-,N/A,,Overcast,190,2013-04-09 19:15:00
2:35 PM,77.0,68.0,74,29.66,10.0,South,12.7,20.7,N/A,,Overcast,170,2013-04-09 19:35:00
2:55 PM,80.6,68.0,65,29.66,10.0,South,16.1,25.3,N/A,,Mostly Cloudy,170,2013-04-09 19:55:00
3:15 PM,80.6,68.0,65,29.66,10.0,South,19.6,26.5,N/A,,Scattered Clouds,180,2013-04-09 20:15:00
3:35 PM,80.6,68.0,65,29.66,10.0,South,15.0,20.7,N/A,,Mostly Cloudy,170,2013-04-09 20:35:00
3:55 PM,80.6,68.0,65,29.66,10.0,South,13.8,17.3,N/A,,Overcast,170,2013-04-09 20:55:00
4:15 PM,78.8,66.2,65,29.66,10.0,South,9.2,19.6,N/A,,Overcast,180,2013-04-09 21:15:00
4:35 PM,80.6,68.0,65,29.65,10.0,South,12.7,18.4,N/A,,Overcast,170,2013-04-09 21:35:00
4:55 PM,82.4,68.0,62,29.64,10.0,South,15.0,19.6,N/A,,Mostly Cloudy,170,2013-04-09 21:55:00
5:15 PM,82.4,66.2,58,29.64,10.0,South,15.0,20.7,N/A,,Clear,190,2013-04-09 22:15:00
5:35 PM,82.4,66.2,58,29.65,10.0,South,10.4,23.0,N/A,,Clear,180,2013-04-09 22:35:00
5:55 PM,80.6,66.2,61,29.66,10.0,South,11.5,18.4,N/A,,Scattered Clouds,190,2013-04-09 22:55:00
6:15 PM,80.6,68.0,65,29.67,10.0,South,11.5,-,N/A,,Mostly Cloudy,180,2013-04-09 23:15:00
6:35 PM,78.8,66.2,65,29.67,10.0,South,8.1,-,N/A,,Mostly Cloudy,180,2013-04-09 23:35:00
6:55 PM,78.8,68.0,69,29.68,10.0,South,12.7,16.1,N/A,,Scattered Clouds,190,2013-04-09 23:55:00
7:15 PM,71.6,59.0,64,29.70,10.0,NW,9.2,31.1,N/A,,Mostly Cloudy,310,2013-04-10 00:15:00
7:35 PM,66.2,59.0,78,29.70,10.0,North,-9999.0,-,N/A,,Overcast,0,2013-04-10 00:35:00
7:55 PM,62.6,55.4,77,29.73,10.0,WNW,16.1,-,N/A,,Overcast,300,2013-04-10 00:55:00
8:15 PM,60.8,53.6,77,29.73,10.0,North,-9999.0,-,N/A,,Overcast,0,2013-04-10 01:15:00
8:35 PM,59.0,51.8,77,29.74,10.0,North,-9999.0,-,N/A,,Overcast,0,2013-04-10 01:35:00
8:55 PM,55.4,50.0,82,29.79,10.0,North,-9999.0,-,N/A,,Overcast,0,2013-04-10 01:55:00
9:15 PM,51.8,46.4,82,29.80,10.0,North,-9999.0,-,N/A,,Mostly Cloudy,0,2013-04-10 02:15:00
9:55 PM,48.2,44.6,87,29.82,10.0,North,-9999.0,-,N/A,,Mostly Cloudy,0,2013-04-10 02:55:00
10:15 PM,46.4,42.8,87,29.86,10.0,North,-9999.0,-,N/A,,Overcast,0,2013-04-10 03:15:00
10:35 PM,44.6,42.8,93,29.85,10.0,North,-9999.0,-,N/A,,Overcast,0,2013-04-10 03:35:00
10:55 PM,42.8,41.0,93,29.88,10.0,North,-9999.0,-,N/A,,Overcast,0,2013-04-10 03:55:00
11:15 PM,41.0,41.0,100,29.88,10.0,North,-9999.0,-,N/A,,Overcast,0,2013-04-10 04:15:00
11:35 PM,41.0,39.2,93,29.85,10.0,North,-9999.0,-,N/A,,Overcast,0,2013-04-10 04:35:00
11:55 PM,41.0,37.4,87,29.81,10.0,North,12.7,-,N/A,,Overcast,360,2013-04-10 04:55:00